[[{"header":{"parameterUnit":"m.s-1","parameterCategory":2,"la1":30.2991,"la2":30.254,"lo1":-89.0895,"lo2":-89.0444,"dy":0.0017,"dx":0.0017,"nx":28,"ny":28,"refTime":"2024-08-18T21:00:00:Z","depth":"0","parameterNumber":2,"parameterNumberName":"U-component_of_CURRENTS"},"data":[0,0,0,0,0,0,0,0,0,0,0,0,0,0,0,0,0,0,0,0,0,0,0,0,0,0,0,0,0,0,0,0,0,0,0,0,0,0,0,0,0,0,0,0,0,0,0,0,0,0,0,0,0,0,0,0,0,0,0.1539,0.1539,0,0.1519,0.1518,0.1518,0.1513,0.1513,0.1513,0.1513,0.1489,0.1488,0.1488,0,0,0,0,0,0,0,0,0,0,0,0,0,0.1569,0.1569,0.1539,0.1539,0.1539,0.1519,0.1518,0.1518,0.1513,0.1513,0.1513,0.1513,0.1489,0.1488,0.1487,0,0,0,0,0,0,0,0,0,0,0,0,0,0.1553,0.1568,0.1539,0.1534,0.1533,0.1519,0.1518,0.1518,0.1513,0.1513,0.1513,0.1513,0.149,0.1488,0.1487,0.1477,0,0,0.1484,0.1483,0,0,0,0,0,0,0,0,0.1554,0.1552,0.1535,0.1534,0.1533,0.1518,0.152,0.1504,0.1513,0.1521,0.1513,0.1513,0.1498,0.1496,0.1492,0.1476,0.1475,0.1484,0.1483,0.1483,0.1482,0,0,0,0,0,0,0,0.1555,0.1553,0.1531,0.1534,0.1533,0.153,0.1528,0.1517,0.1509,0.152,0.152,0.1517,0.1498,0.1494,0.1492,0.1474,0.1484,0.1483,0.1482,0.1482,0.1512,0.1514,0,0,0,0,0,0,0.1557,0.1554,0.1532,0.1531,0.1544,0.153,0.1527,0.1523,0.1509,0.1507,0.1517,0.1517,0.1495,0.1493,0.1491,0.1539,0.1483,0.1482,0.1481,0.1511,0.1513,0.1514,0,0,0,0,0,0,0.1558,0.1556,0.1533,0.1542,0.1539,0.1529,0.1524,0.1523,0.1523,0.1507,0.1505,0.1519,0.1495,0.1493,0.1504,0.1536,0.1481,0.148,0.1509,0.1511,0.1513,0.1597,0,0,0,0,0,0,0.1559,0.1556,0.1553,0.1542,0.1538,0.1534,0.1524,0.1522,0.1521,0.1521,0.1508,0.1506,0.1495,0.1506,0.1503,0.1533,0.1479,0.1507,0.151,0.1513,0.1592,0.1601,0.1609,0,0,0,0,0,0.156,0.1549,0.1553,0.155,0.1535,0.1535,0.1533,0.1526,0.1521,0.1526,0.1528,0.1506,0.1522,0.1506,0.1502,0.1533,0.1506,0.1509,0.1513,0.1588,0.1599,0.1609,0,0,0,0,0,0,0.1549,0.1547,0.1551,0.1538,0.1544,0.1534,0.153,0.1529,0.1533,0.1531,0.152,0.1518,0.1544,0.1524,0.1507,0.1551,0.1512,0.1515,0.1571,0.1581,0.159,0.1587,0.1478,0,0,0,0,0,0.1549,0.1547,0.1548,0.154,0.1542,0.1539,0.1537,0.1537,0.1537,0.1538,0.1537,0.1538,0.1553,0.1555,0.1557,0.1573,0.1574,0.1592,0.1601,0.1608,0.1605,0.1629,0.164,0.1525,0.1525,0.1525,0,0,0.1542,0.154,0.1538,0.1539,0.1539,0.156,0.1538,0.1537,0.1564,0.1534,0.1566,0.1565,0.1564,0.1594,0.1603,0.1582,0.1652,0.1613,0.1619,0.1611,0.1634,0.1645,0.1655,0.1528,0.1527,0.1527,0,0,0.1538,0.1528,0.1536,0.1549,0.1557,0.1563,0.1567,0.1571,0.1581,0.1606,0.1605,0.1624,0.1631,0.1649,0.1657,0.171,0.1698,0.1713,0.1753,0.1778,0.1787,0.1796,0.1855,0.1867,0.1716,0.1716,0.1716,0,0.1533,0.1552,0.1538,0.156,0.1583,0.1572,0.1606,0.1611,0.1623,0.1644,0.1626,0.1667,0.1661,0.1716,0.1738,0.1731,0.175,0.1715,0.179,0.1797,0.1804,0.1862,0.1875,0.1721,0.172,0.172,0.1719,0,0.1551,0.1575,0.1579,0.1617,0.1632,0.1655,0.1673,0.1692,0.17,0.1712,0.1757,0.1752,0.1779,0.1787,0.1776,0.1833,0.1837,0.18,0.1763,0.1821,0.1879,0.1891,0.1727,0.1725,0.1724,0.1723,0,0,0.1532,0.1587,0.1594,0.164,0.1674,0.1693,0.1736,0.1783,0.1816,0.1824,0.1874,0.1896,0.1884,0.1891,0.1885,0.1899,0.1978,0.1871,0.1871,0.1931,0.2065,0.222,0.2248,0.1953,0.1955,0.1956,0.2101,0,0.1567,0.1639,0.1651,0.173,0.1779,0.1795,0.1838,0.1872,0.189,0.1927,0.1929,0.1963,0.1928,0.1943,0.1956,0.1968,0.2006,0.1944,0.1997,0.2,0.2131,0.2265,0.2355,0.2504,0.2113,0.2115,0.2116,0,0.1596,0.165,0.1738,0.1823,0.1841,0.1878,0.1954,0.1989,0.2026,0.2037,0.206,0.2052,0.2095,0.2036,0.21,0.2063,0.2074,0.2074,0.2079,0.2196,0.2177,0.2374,0.254,0.242,0.2134,0.2132,0.2131,0,0.1628,0.1713,0.1796,0.1827,0.1908,0.1948,0.1983,0.2026,0.206,0.2103,0.2127,0.2161,0.2186,0.2195,0.2215,0.2157,0.2285,0.2204,0.2362,0.2373,0.2447,0.2464,0.2502,0.225,0.225,0.225,0.2249,0,0.1677,0.1742,0.1818,0.1869,0.1954,0.1987,0.2056,0.2091,0.2132,0.2175,0.2181,0.2227,0.2219,0.2284,0.2275,0.2406,0.2348,0.2415,0.2436,0.2486,0.2504,0.2397,0.2317,0.2255,0.2254,0.2253,0.2252,0,0.1706,0.1759,0.1858,0.1951,0.1975,0.2033,0.2092,0.213,0.2172,0.2228,0.2246,0.2305,0.2423,0.2458,0.2508,0.2522,0.2559,0.2643,0.2736,0.2767,0.2807,0.273,0.2696,0.2607,0.2852,0.2857,0.2861,0,0.173,0.1788,0.1905,0.1945,0.1988,0.2059,0.2094,0.2146,0.2181,0.2277,0.231,0.2448,0.2556,0.2754,0.2849,0.2968,0.2758,0.3078,0.2982,0.2879,0.2804,0.2589,0.2495,0.3116,0.3122,0.3126,0.313,0,0.1779,0.1821,0.1898,0.1983,0.2036,0.2082,0.2138,0.217,0.223,0.2293,0.2401,0.2504,0.2777,0.2974,0.3183,0.3243,0.2983,0.3185,0.3032,0.3012,0.2822,0.2724,0.2951,0.3174,0.3169,0.3166,0.3164,0.3162,0.1804,0.1862,0.1952,0.2019,0.2062,0.2087,0.2111,0.2166,0.2233,0.2329,0.2452,0.2642,0.2988,0.3333,0.3367,0.3503,0.33,0.3429,0.3348,0.3137,0.3044,0.3414,0.3682,0.3681,0.3679,0.3678,0.3677,0,0.1849,0.1905,0.197,0.2045,0.2057,0.2084,0.2122,0.2128,0.2185,0.2371,0.25,0.2918,0.32,0.3427,0.3717,0.3651,0.3411,0.3532,0.3195,0.3091,0.3419,0.3424,0.3705,0.3705,0.3705,0.3705,0.3705,0.3706,0.1884,0.1958,0.1986,0.2016,0.2039,0.2039,0.2043,0.2065,0.2177,0.2402,0.2654,0.2881,0.3263,0.36,0.368,0.3629,0.3243,0.3223,0.2993,0.3194,0.3172,0.3152,0.3134,0.335,0.3349,0.26,0.2594,0.259]},{"header":{"parameterUnit":"m.s-1","parameterCategory":2,"la1":30.2991,"la2":30.254,"lo1":-89.0895,"lo2":-89.0444,"dy":0.0017,"dx":0.0017,"nx":28,"ny":28,"refTime":"2024-08-18T21:00:00:Z","depth":"0","parameterNumber":3,"parameterNumberName":"V-component_of_CURRENTS"},"data":[0,0,0,0,0,0,0,0,0,0,0,0,0,0,0,0,0,0,0,0,0,0,0,0,0,0,0,0,0,0,0,0,0,0,0,0,0,0,0,0,0,0,0,0,0,0,0,0,0,0,0,0,0,0,0,0,0,0,-0.0828,-0.0828,0,-0.0835,-0.0834,-0.0834,-0.0818,-0.0818,-0.0818,-0.0818,-0.0847,-0.0848,-0.0849,0,0,0,0,0,0,0,0,0,0,0,0,0,-0.0759,-0.076,-0.0828,-0.0828,-0.0828,-0.0835,-0.0834,-0.0834,-0.0818,-0.0818,-0.0818,-0.0818,-0.0847,-0.0848,-0.0849,0,0,0,0,0,0,0,0,0,0,0,0,0,-0.0776,-0.0761,-0.0828,-0.0824,-0.0824,-0.0835,-0.0834,-0.0834,-0.0818,-0.0818,-0.0818,-0.0818,-0.0847,-0.0848,-0.085,-0.0863,0,0,-0.0854,-0.0854,0,0,0,0,0,0,0,0,-0.0775,-0.0778,-0.0824,-0.0825,-0.0825,-0.0829,-0.0821,-0.0846,-0.0818,-0.0817,-0.0818,-0.0818,-0.0846,-0.0847,-0.0843,-0.0864,-0.0865,-0.0854,-0.0855,-0.0855,-0.0856,0,0,0,0,0,0,0,-0.0774,-0.0777,-0.0826,-0.0825,-0.0825,-0.0808,-0.081,-0.0825,-0.083,-0.0817,-0.0817,-0.0824,-0.0846,-0.0842,-0.0844,-0.0866,-0.0854,-0.0855,-0.0856,-0.0857,-0.0938,-0.094,0,0,0,0,0,0,-0.0784,-0.0777,-0.0826,-0.0827,-0.0803,-0.081,-0.0812,-0.0824,-0.0829,-0.0831,-0.0824,-0.0823,-0.084,-0.0843,-0.0845,-0.0887,-0.0855,-0.0857,-0.0857,-0.0937,-0.0939,-0.094,0,0,0,0,0,0,-0.0782,-0.0788,-0.0826,-0.0804,-0.0809,-0.0812,-0.0826,-0.0825,-0.0826,-0.0835,-0.0836,-0.0827,-0.084,-0.0843,-0.0868,-0.0888,-0.0857,-0.0859,-0.0936,-0.0938,-0.0939,-0.0955,0,0,0,0,0,0,-0.078,-0.0788,-0.0792,-0.0806,-0.081,-0.0833,-0.0826,-0.0825,-0.0833,-0.0831,-0.0838,-0.084,-0.084,-0.0866,-0.0869,-0.0889,-0.086,-0.0934,-0.0936,-0.0939,-0.0953,-0.0958,-0.0962,0,0,0,0,0,-0.0778,-0.0781,-0.0793,-0.0798,-0.082,-0.0833,-0.0834,-0.0832,-0.0833,-0.0833,-0.0845,-0.084,-0.0885,-0.0868,-0.0872,-0.0892,-0.0933,-0.0936,-0.0939,-0.0951,-0.0957,-0.0961,0,0,0,0,0,0,-0.0743,-0.0781,-0.0793,-0.0806,-0.0823,-0.0832,-0.0829,-0.0838,-0.0846,-0.0846,-0.0854,-0.0857,-0.0887,-0.0891,-0.0873,-0.0926,-0.091,-0.0914,-0.0918,-0.0924,-0.0928,-0.0941,-0.0861,0,0,0,0,0,-0.0744,-0.0759,-0.0791,-0.0798,-0.081,-0.0824,-0.0828,-0.0834,-0.0847,-0.0849,-0.0856,-0.0874,-0.0902,-0.0913,-0.0929,-0.0956,-0.0967,-0.0974,-0.0979,-0.0982,-0.0997,-0.1044,-0.1053,-0.095,-0.095,-0.095,0,0,-0.0725,-0.0753,-0.0757,-0.0793,-0.0803,-0.0815,-0.0824,-0.0835,-0.0847,-0.0854,-0.0864,-0.0886,-0.0913,-0.0942,-0.0957,-0.0948,-0.1012,-0.0986,-0.0988,-0.1002,-0.1048,-0.1058,-0.1067,-0.0952,-0.0952,-0.0951,0,0,-0.0696,-0.0731,-0.0732,-0.0754,-0.0785,-0.0805,-0.0813,-0.0833,-0.0844,-0.0866,-0.0883,-0.0922,-0.0941,-0.0974,-0.0994,-0.1036,-0.1033,-0.1038,-0.1069,-0.1114,-0.1123,-0.1131,-0.1129,-0.1137,-0.104,-0.104,-0.104,0,-0.0668,-0.0689,-0.073,-0.0742,-0.076,-0.0803,-0.0809,-0.0832,-0.0854,-0.0878,-0.087,-0.0941,-0.0961,-0.1027,-0.1045,-0.1046,-0.1055,-0.1043,-0.1119,-0.1127,-0.1135,-0.1132,-0.1141,-0.1041,-0.1041,-0.1041,-0.1041,0,-0.0641,-0.0663,-0.0667,-0.0706,-0.0731,-0.0744,-0.0795,-0.0821,-0.0847,-0.0876,-0.0937,-0.0974,-0.1018,-0.1038,-0.1057,-0.1132,-0.1112,-0.1116,-0.1102,-0.1146,-0.114,-0.1149,-0.1043,-0.1042,-0.1042,-0.1042,0,0,-0.056,-0.0632,-0.0631,-0.0658,-0.0718,-0.0739,-0.0779,-0.0835,-0.0864,-0.091,-0.0945,-0.1029,-0.1059,-0.1087,-0.112,-0.1174,-0.1232,-0.1174,-0.1176,-0.1166,-0.1301,-0.119,-0.1188,-0.1249,-0.1251,-0.1253,-0.1263,0,-0.0522,-0.0546,-0.0591,-0.0618,-0.0644,-0.0712,-0.0747,-0.081,-0.0857,-0.09,-0.0984,-0.1019,-0.1074,-0.1088,-0.1164,-0.1202,-0.126,-0.1227,-0.1267,-0.1268,-0.1159,-0.1198,-0.1096,-0.109,-0.1271,-0.1273,-0.1274,0,-0.0474,-0.0511,-0.0528,-0.0609,-0.0623,-0.0645,-0.0727,-0.0762,-0.0853,-0.0884,-0.0963,-0.1006,-0.1097,-0.1124,-0.125,-0.1222,-0.128,-0.1318,-0.1319,-0.1221,-0.1174,-0.1083,-0.1098,-0.1281,-0.1287,-0.1286,-0.1285,0,-0.0413,-0.0466,-0.0487,-0.051,-0.0599,-0.0625,-0.0671,-0.0758,-0.0783,-0.0866,-0.0866,-0.0997,-0.1004,-0.1137,-0.1201,-0.1236,-0.1304,-0.1352,-0.1315,-0.1305,-0.1231,-0.121,-0.1424,-0.1467,-0.1467,-0.1467,-0.1467,0,-0.0367,-0.0386,-0.0463,-0.0478,-0.0513,-0.0585,-0.0619,-0.068,-0.0736,-0.0733,-0.0848,-0.083,-0.1008,-0.1053,-0.1179,-0.1231,-0.1282,-0.1327,-0.1312,-0.1228,-0.1208,-0.1371,-0.1486,-0.1468,-0.1468,-0.1468,-0.1468,0,-0.0308,-0.0348,-0.0387,-0.0468,-0.0488,-0.0517,-0.0573,-0.059,-0.0639,-0.0627,-0.0634,-0.0696,-0.0727,-0.0875,-0.102,-0.1134,-0.1299,-0.1245,-0.11,-0.107,-0.1231,-0.1347,-0.1502,-0.1586,-0.1243,-0.1241,-0.1239,0,-0.0279,-0.0292,-0.0367,-0.0378,-0.0413,-0.0455,-0.0471,-0.054,-0.0533,-0.0513,-0.048,-0.049,-0.0437,-0.0586,-0.0782,-0.0951,-0.1168,-0.1006,-0.1085,-0.1232,-0.1355,-0.1438,-0.1507,-0.0988,-0.0984,-0.098,-0.0978,0,-0.0243,-0.0269,-0.031,-0.0316,-0.0333,-0.0348,-0.0361,-0.0339,-0.0364,-0.0292,-0.0161,-0.0096,-0.0198,-0.0257,-0.0486,-0.0654,-0.1104,-0.0943,-0.1163,-0.1231,-0.1273,-0.1344,-0.0966,-0.0949,-0.0952,-0.0954,-0.0955,-0.0956,-0.0214,-0.0227,-0.0252,-0.0248,-0.0254,-0.0208,-0.0161,-0.012,-0.0023,0.0172,0.0166,0.0412,0.0209,-0.0058,-0.0345,-0.0798,-0.0892,-0.0957,-0.1098,-0.1179,-0.124,-0.0765,-0.0687,-0.0688,-0.0689,-0.069,-0.0691,0,-0.0158,-0.0163,-0.0166,-0.0143,-0.0077,-0.0107,-0.0048,0.0066,0.0276,0.0509,0.0716,0.0883,0.058,0.0159,-0.0454,-0.0863,-0.1086,-0.1123,-0.1284,-0.1363,-0.0988,-0.0957,-0.0852,-0.0852,-0.0851,-0.0851,-0.0851,-0.0851,-0.0126,-0.0099,-0.0088,0.0046,0.0087,0.0215,0.0288,0.0462,0.066,0.1084,0.138,0.1555,0.1251,0.0001,-0.092,-0.1175,-0.1525,-0.1528,-0.1773,-0.1579,-0.1577,-0.1576,-0.1578,-0.1605,-0.1606,-0.2069,-0.2074,-0.2077]}],[{"header":{"parameterUnit":"m.s-1","parameterCategory":2,"la1":30.2991,"la2":30.254,"lo1":-89.0895,"lo2":-89.0444,"dy":0.0017,"dx":0.0017,"nx":28,"ny":28,"refTime":"2024-08-18T21:00:00:Z","depth":"2","parameterNumber":2,"parameterNumberName":"U-component_of_CURRENTS"},"data":[0,0,0,0,0,0,0,0,0,0,0,0,0,0,0,0,0,0,0,0,0,0,0,0,0,0,0,0,0,0,0,0,0,0,0,0,0,0,0,0,0,0,0,0,0,0,0,0,0,0,0,0,0,0,0,0,0,0,0.1421,0.1422,0,0.1423,0.1422,0.1422,0.141,0.1411,0.1411,0.1411,0.1401,0.14,0.14,0,0,0,0,0,0,0,0,0,0,0,0,0,0.14,0.14,0.1421,0.1422,0.1422,0.1423,0.1422,0.1422,0.141,0.1411,0.1411,0.1411,0.1401,0.14,0.14,0,0,0,0,0,0,0,0,0,0,0,0,0,0.1402,0.14,0.1421,0.1419,0.1419,0.1423,0.1422,0.1422,0.141,0.1411,0.1411,0.1411,0.1401,0.14,0.14,0.1396,0,0,0.1399,0.1398,0,0,0,0,0,0,0,0,0.1402,0.1403,0.1419,0.142,0.142,0.142,0.1412,0.1414,0.141,0.141,0.1411,0.1411,0.1409,0.1407,0.1402,0.1395,0.1395,0.1398,0.1398,0.1398,0.1398,0,0,0,0,0,0,0,0.1402,0.1403,0.1418,0.142,0.142,0.1416,0.1416,0.1412,0.1405,0.141,0.141,0.1416,0.1408,0.1403,0.1402,0.1395,0.1398,0.1398,0.1398,0.1398,0.1448,0.1449,0,0,0,0,0,0,0.141,0.1402,0.1418,0.1418,0.1415,0.1416,0.1416,0.1417,0.1406,0.1405,0.1416,0.1416,0.1403,0.1402,0.1401,0.1463,0.1398,0.1398,0.1397,0.1446,0.1448,0.145,0,0,0,0,0,0,0.141,0.1411,0.1418,0.1414,0.1415,0.1417,0.1417,0.1417,0.1419,0.1412,0.141,0.1421,0.1403,0.1402,0.1418,0.146,0.1397,0.1397,0.1444,0.1447,0.1449,0.1543,0,0,0,0,0,0,0.1409,0.1411,0.1413,0.1414,0.1416,0.1433,0.1418,0.1417,0.1425,0.1424,0.1415,0.1414,0.1403,0.1419,0.1418,0.1458,0.1397,0.1442,0.1445,0.1448,0.1538,0.1548,0.1557,0,0,0,0,0,0.1408,0.1405,0.1413,0.1415,0.1418,0.1434,0.1434,0.1433,0.1425,0.1433,0.1433,0.1414,0.1438,0.142,0.1418,0.1459,0.1441,0.1445,0.1448,0.1534,0.1546,0.1557,0,0,0,0,0,0,0.1383,0.1404,0.1412,0.1412,0.1432,0.1434,0.1436,0.1439,0.1443,0.1442,0.1429,0.1429,0.1462,0.1443,0.1424,0.1483,0.1438,0.1442,0.1504,0.1516,0.1525,0.1542,0.1396,0,0,0,0,0,0.1384,0.1392,0.1415,0.1415,0.1427,0.1434,0.1439,0.1446,0.1451,0.1452,0.1452,0.1456,0.1473,0.148,0.1485,0.151,0.1518,0.1537,0.1546,0.1555,0.1567,0.1606,0.1621,0.1462,0.1462,0.1462,0,0,0.1375,0.1386,0.1391,0.1413,0.1421,0.1457,0.1436,0.1451,0.1488,0.1451,0.1489,0.1487,0.1487,0.1525,0.1538,0.1516,0.161,0.1559,0.1567,0.1575,0.1611,0.1627,0.1641,0.1464,0.1464,0.1463,0,0,0.1374,0.1373,0.1394,0.1419,0.1449,0.1463,0.1474,0.1494,0.1509,0.1547,0.1538,0.1563,0.1577,0.1596,0.1605,0.1668,0.166,0.1668,0.1732,0.177,0.1784,0.1796,0.1854,0.187,0.1674,0.1674,0.1674,0,0.137,0.1399,0.1402,0.1438,0.1469,0.1474,0.1522,0.1538,0.1564,0.1591,0.1574,0.1626,0.1619,0.1683,0.1707,0.1693,0.1716,0.1689,0.1785,0.1796,0.1807,0.1863,0.188,0.1679,0.1678,0.1678,0.1677,0,0.1399,0.143,0.1441,0.15,0.1531,0.1564,0.1606,0.1637,0.1656,0.168,0.1742,0.1739,0.1771,0.1779,0.1763,0.1841,0.1835,0.1793,0.1757,0.1829,0.1883,0.1899,0.1686,0.1684,0.1683,0.1681,0,0,0.1385,0.1454,0.1462,0.1513,0.1573,0.1606,0.1671,0.174,0.1782,0.1817,0.1879,0.1918,0.1909,0.1919,0.1905,0.1938,0.2036,0.1902,0.1902,0.1965,0.2146,0.2236,0.2262,0.201,0.2012,0.2014,0.2164,0,0.1421,0.1503,0.1528,0.162,0.1678,0.1714,0.1771,0.1831,0.1868,0.192,0.1948,0.1984,0.1965,0.1973,0.2015,0.2017,0.2078,0.2001,0.2062,0.2064,0.214,0.2283,0.2001,0.2119,0.2179,0.2182,0.2183,0,0.1458,0.1515,0.1609,0.1706,0.1731,0.1781,0.188,0.1928,0.1997,0.2021,0.2074,0.2076,0.2145,0.2093,0.2194,0.2146,0.2167,0.2172,0.2177,0.2239,0.2185,0.205,0.2145,0.2209,0.2207,0.2205,0.2204,0,0.1479,0.1576,0.1655,0.1691,0.1792,0.1841,0.1888,0.1962,0.2004,0.2073,0.2103,0.218,0.2208,0.2257,0.2288,0.2242,0.2391,0.232,0.2438,0.2443,0.2206,0.2189,0.2409,0.2409,0.2409,0.2408,0.2408,0,0.1517,0.1583,0.1668,0.172,0.1799,0.1864,0.1935,0.1986,0.2054,0.2108,0.2144,0.2208,0.2246,0.2326,0.2345,0.2477,0.245,0.2502,0.2507,0.2237,0.2222,0.2279,0.2262,0.2414,0.2413,0.2411,0.2411,0,0.1512,0.1582,0.1671,0.1778,0.1813,0.186,0.1944,0.1991,0.2053,0.2125,0.2147,0.225,0.239,0.2454,0.2542,0.2565,0.2652,0.2693,0.2402,0.2375,0.2664,0.265,0.2864,0.2869,0.2873,0.2876,0.2879,0,0.1517,0.1565,0.1678,0.1728,0.1772,0.1845,0.1894,0.1976,0.2021,0.2159,0.2196,0.2359,0.2488,0.2698,0.2717,0.283,0.2825,0.2661,0.2543,0.2738,0.272,0.2699,0.268,0.2252,0.225,0.2248,0.2246,0,0.1504,0.1534,0.1588,0.1699,0.177,0.182,0.1897,0.1932,0.2032,0.2121,0.2268,0.2392,0.2595,0.2611,0.2769,0.2775,0.2626,0.2637,0.2889,0.2219,0.2184,0.2159,0.2155,0.2228,0.223,0.2231,0.2232,0.2233,0.1455,0.1477,0.1561,0.1657,0.1733,0.1787,0.182,0.1903,0.1989,0.2076,0.2226,0.2335,0.2392,0.2539,0.2531,0.2518,0.2695,0.2549,0.2543,0.2542,0.2483,0.2462,0.2547,0.255,0.2554,0.2556,0.2559,0,0.1394,0.1451,0.1529,0.1635,0.1702,0.1767,0.1823,0.1844,0.1934,0.1997,0.2107,0.1983,0.208,0.218,0.2131,0.2209,0.2052,0.2148,0.1866,0.1889,0.1908,0.1803,0.1693,0.1691,0.1688,0.1686,0,0,0.1359,0.141,0.1469,0.1585,0.1674,0.1722,0.1749,0.1769,0.1798,0.1753,0.1755,0.1913,0.2083,0.1812,0.1819,0.1754,0.1788,0.1694,0.2383,0.2068,0.2083,0.2143,0.2014,0,0,0,0,0]},{"header":{"parameterUnit":"m.s-1","parameterCategory":2,"la1":30.2991,"la2":30.254,"lo1":-89.0895,"lo2":-89.0444,"dy":0.0017,"dx":0.0017,"nx":28,"ny":28,"refTime":"2024-08-18T21:00:00:Z","depth":"2","parameterNumber":3,"parameterNumberName":"V-component_of_CURRENTS"},"data":[0,0,0,0,0,0,0,0,0,0,0,0,0,0,0,0,0,0,0,0,0,0,0,0,0,0,0,0,0,0,0,0,0,0,0,0,0,0,0,0,0,0,0,0,0,0,0,0,0,0,0,0,0,0,0,0,0,0,-0.0335,-0.0333,0,-0.0242,-0.0241,-0.0241,-0.0263,-0.0265,-0.0266,-0.0267,-0.0291,-0.0291,-0.029,0,0,0,0,0,0,0,0,0,0,0,0,0,-0.0312,-0.0314,-0.0335,-0.0333,-0.0331,-0.0242,-0.0241,-0.0241,-0.0263,-0.0265,-0.0266,-0.0267,-0.0291,-0.0291,-0.029,0,0,0,0,0,0,0,0,0,0,0,0,0,-0.0288,-0.0315,-0.0335,-0.0327,-0.0324,-0.0242,-0.0241,-0.024,-0.0263,-0.0265,-0.0266,-0.0268,-0.0291,-0.0291,-0.029,-0.0251,0,0,-0.0288,-0.0288,0,0,0,0,0,0,0,0,-0.029,-0.029,-0.033,-0.0327,-0.0324,-0.026,-0.0241,-0.0247,-0.0262,-0.0294,-0.0267,-0.0269,-0.0286,-0.0285,-0.0273,-0.0253,-0.0254,-0.0288,-0.0288,-0.0287,-0.0287,0,0,0,0,0,0,0,-0.0292,-0.0292,-0.0305,-0.0327,-0.0324,-0.0251,-0.0253,-0.0242,-0.0289,-0.0291,-0.0291,-0.0268,-0.0286,-0.0273,-0.0273,-0.0254,-0.0288,-0.0288,-0.0287,-0.0287,-0.03,-0.03,0,0,0,0,0,0,-0.0299,-0.0296,-0.0308,-0.0302,-0.0303,-0.025,-0.0252,-0.0284,-0.0286,-0.0285,-0.0267,-0.027,-0.0273,-0.0274,-0.0275,-0.0301,-0.0287,-0.0287,-0.0286,-0.0299,-0.03,-0.03,0,0,0,0,0,0,-0.03,-0.0303,-0.0312,-0.0287,-0.0282,-0.025,-0.0285,-0.0282,-0.0277,-0.0265,-0.0269,-0.0266,-0.0275,-0.0275,-0.0292,-0.03,-0.0287,-0.0286,-0.0298,-0.0299,-0.03,-0.0308,0,0,0,0,0,0,-0.0301,-0.0306,-0.0317,-0.029,-0.0284,-0.0264,-0.0282,-0.0278,-0.0256,-0.0259,-0.0265,-0.0269,-0.0276,-0.0293,-0.0291,-0.0299,-0.0285,-0.0297,-0.0298,-0.03,-0.0307,-0.0309,-0.0311,0,0,0,0,0,-0.0301,-0.0302,-0.032,-0.0319,-0.0309,-0.0262,-0.0253,-0.0238,-0.0254,-0.0244,-0.027,-0.0269,-0.0301,-0.0292,-0.029,-0.0298,-0.0296,-0.0298,-0.03,-0.0306,-0.0309,-0.0311,0,0,0,0,0,0,-0.0272,-0.0303,-0.0322,-0.0329,-0.0301,-0.0264,-0.0242,-0.0236,-0.0243,-0.0258,-0.027,-0.0275,-0.0295,-0.0293,-0.0284,-0.0308,-0.03,-0.0302,-0.0306,-0.0308,-0.0311,-0.0314,-0.0285,0,0,0,0,0,-0.0279,-0.0312,-0.0301,-0.0302,-0.0298,-0.0276,-0.0251,-0.0243,-0.024,-0.0244,-0.0252,-0.0272,-0.0294,-0.0301,-0.031,-0.0311,-0.0316,-0.0318,-0.0321,-0.0322,-0.0326,-0.0353,-0.0358,-0.0306,-0.0306,-0.0306,0,0,-0.0265,-0.0281,-0.0298,-0.0299,-0.0288,-0.0271,-0.0269,-0.0237,-0.0228,-0.0246,-0.0254,-0.0275,-0.0297,-0.0313,-0.0321,-0.0316,-0.0337,-0.0324,-0.0326,-0.0328,-0.0356,-0.0361,-0.0365,-0.0307,-0.0307,-0.0307,0,0,-0.0242,-0.028,-0.0299,-0.0288,-0.0266,-0.025,-0.0245,-0.0223,-0.0228,-0.0224,-0.0256,-0.0286,-0.0291,-0.0321,-0.0336,-0.0351,-0.035,-0.0354,-0.0363,-0.039,-0.0395,-0.0399,-0.0397,-0.0401,-0.0353,-0.0353,-0.0353,0,-0.0225,-0.0253,-0.0279,-0.0281,-0.0267,-0.0251,-0.024,-0.023,-0.0212,-0.0219,-0.0231,-0.0275,-0.0298,-0.0334,-0.0358,-0.0356,-0.0363,-0.035,-0.0393,-0.0397,-0.0401,-0.0399,-0.0403,-0.0354,-0.0354,-0.0354,-0.0354,0,-0.0212,-0.0231,-0.023,-0.0258,-0.0245,-0.022,-0.022,-0.021,-0.0216,-0.021,-0.0241,-0.0277,-0.0309,-0.0324,-0.0351,-0.0394,-0.0386,-0.0393,-0.0384,-0.0407,-0.0403,-0.0407,-0.0355,-0.0354,-0.0354,-0.0354,0,0,-0.019,-0.0223,-0.022,-0.0227,-0.0233,-0.0209,-0.0217,-0.0205,-0.0202,-0.0211,-0.022,-0.0285,-0.0308,-0.033,-0.0365,-0.0398,-0.044,-0.0415,-0.0416,-0.0409,-0.0484,-0.0487,-0.0492,-0.0458,-0.046,-0.0461,-0.0464,0,-0.0168,-0.0163,-0.0196,-0.0178,-0.0173,-0.0189,-0.0189,-0.0184,-0.019,-0.0189,-0.0237,-0.0271,-0.0308,-0.0344,-0.0378,-0.0417,-0.0455,-0.0438,-0.0467,-0.0467,-0.0465,-0.0499,-0.0451,-0.0452,-0.0468,-0.0468,-0.0469,0,-0.0141,-0.0141,-0.0134,-0.0144,-0.0148,-0.0148,-0.0149,-0.0145,-0.0159,-0.0174,-0.0215,-0.0252,-0.031,-0.0347,-0.0415,-0.0402,-0.0458,-0.0486,-0.0487,-0.0493,-0.048,-0.0436,-0.0459,-0.0476,-0.0475,-0.0475,-0.0474,0,-0.0082,-0.0092,-0.0083,-0.0086,-0.01,-0.0119,-0.0128,-0.0145,-0.0142,-0.0185,-0.0185,-0.0248,-0.0279,-0.035,-0.0432,-0.043,-0.0493,-0.0489,-0.0541,-0.054,-0.0507,-0.0502,-0.0566,-0.0566,-0.0566,-0.0566,-0.0566,0,-0.0037,-0.0021,-0.0059,-0.0051,-0.0038,-0.0083,-0.0069,-0.0097,-0.0123,-0.0087,-0.0185,-0.0158,-0.029,-0.0338,-0.0414,-0.0481,-0.0483,-0.0551,-0.0553,-0.0507,-0.0502,-0.0531,-0.0527,-0.0566,-0.0566,-0.0566,-0.0566,0,0.0044,0.0012,0.003,-0.0,-0.0015,-0.0006,-0.0036,-0.0021,-0.0065,-0.0027,-0.0054,-0.0104,-0.0146,-0.0275,-0.0377,-0.0451,-0.0529,-0.0571,-0.0501,-0.0496,-0.0553,-0.0549,-0.0595,-0.0595,-0.0595,-0.0596,-0.0596,0,0.008,0.0099,0.0087,0.0083,0.0059,0.0063,0.0063,0.0009,0.0029,0.0053,0.0082,0.0015,0.0069,-0.0091,-0.0281,-0.0429,-0.0503,-0.0539,-0.0545,-0.0565,-0.0561,-0.0557,-0.0553,-0.0489,-0.0488,-0.0488,-0.0487,0,0.0167,0.0167,0.0202,0.0189,0.0168,0.0192,0.0183,0.0208,0.0195,0.0261,0.037,0.041,0.0245,0.0119,-0.0186,-0.0287,-0.0509,-0.0532,-0.058,-0.0497,-0.0468,-0.0464,-0.0463,-0.0482,-0.0483,-0.0483,-0.0484,-0.0484,0.025,0.0299,0.0318,0.0315,0.0304,0.0322,0.0365,0.042,0.052,0.0642,0.0656,0.0741,0.0463,0.0162,-0.0099,-0.0425,-0.0405,-0.052,-0.052,-0.0522,-0.0517,-0.0492,-0.0507,-0.0508,-0.0509,-0.0509,-0.0509,0,0.0337,0.0382,0.0416,0.0426,0.0451,0.0396,0.0453,0.0548,0.0737,0.0856,0.1012,0.083,0.0642,0.0283,-0.0167,-0.042,-0.0432,-0.0521,-0.0492,-0.0494,-0.0496,-0.0491,-0.0474,-0.0475,-0.0476,-0.0476,0,0,0.0386,0.0466,0.0491,0.0553,0.0547,0.0598,0.064,0.0809,0.0921,0.1117,0.1153,0.1194,0.0737,0.0415,0.0048,-0.0228,-0.0293,-0.0266,-0.0261,-0.0184,-0.0183,-0.046,-0.045,0,0,0,0,0]}],[{"header":{"parameterUnit":"m.s-1","parameterCategory":2,"la1":30.2991,"la2":30.254,"lo1":-89.0895,"lo2":-89.0444,"dy":0.0017,"dx":0.0017,"nx":28,"ny":28,"refTime":"2024-08-18T21:00:00:Z","depth":"4","parameterNumber":2,"parameterNumberName":"U-component_of_CURRENTS"},"data":[0,0,0,0,0,0,0,0,0,0,0,0,0,0,0,0,0,0,0,0,0,0,0,0,0,0,0,0,0,0,0,0,0,0,0,0,0,0,0,0,0,0,0,0,0,0,0,0,0,0,0,0,0,0,0,0,0,0,0.0729,0.0729,0,0.078,0.078,0.078,0.0834,0.0836,0.0837,0.0838,0.0881,0.0881,0.0881,0,0,0,0,0,0,0,0,0,0,0,0,0,0.0639,0.064,0.0728,0.0729,0.073,0.078,0.078,0.078,0.0834,0.0836,0.0837,0.0838,0.0881,0.0881,0.0881,0,0,0,0,0,0,0,0,0,0,0,0,0,0.068,0.064,0.0728,0.0765,0.0769,0.0779,0.078,0.078,0.0834,0.0836,0.0837,0.0839,0.0881,0.0881,0.0881,0.0852,0,0,0.0882,0.0882,0,0,0,0,0,0,0,0,0.0677,0.0682,0.0759,0.0763,0.0767,0.0805,0.0764,0.0805,0.0834,0.0806,0.0838,0.0839,0.0856,0.0858,0.086,0.0854,0.0856,0.0882,0.0882,0.0883,0.0883,0,0,0,0,0,0,0,0.0674,0.068,0.0746,0.076,0.0765,0.0766,0.0774,0.0772,0.0819,0.0809,0.0814,0.0824,0.0858,0.086,0.0861,0.0857,0.0882,0.0883,0.0883,0.0883,0.0926,0.0927,0,0,0,0,0,0,0.0675,0.0678,0.0744,0.0748,0.0729,0.0767,0.0775,0.0789,0.0819,0.0827,0.0822,0.0826,0.0858,0.0861,0.0863,0.092,0.0883,0.0883,0.0883,0.0925,0.0927,0.0928,0,0,0,0,0,0,0.0673,0.068,0.0742,0.0716,0.0724,0.0768,0.0782,0.0789,0.0821,0.083,0.0837,0.0851,0.086,0.0863,0.0887,0.0919,0.0883,0.0883,0.0924,0.0926,0.0927,0.0976,0,0,0,0,0,0,0.067,0.0679,0.0692,0.0716,0.0726,0.0769,0.0781,0.0789,0.0824,0.083,0.0856,0.086,0.0861,0.0887,0.0888,0.0919,0.0883,0.0923,0.0925,0.0927,0.0973,0.0979,0.0984,0,0,0,0,0,0.0666,0.0681,0.0693,0.0701,0.0742,0.077,0.0776,0.0808,0.0824,0.0842,0.0859,0.0861,0.09,0.0887,0.0888,0.092,0.0922,0.0924,0.0927,0.0971,0.0978,0.0984,0,0,0,0,0,0,0.0652,0.0689,0.0702,0.0729,0.0757,0.0781,0.0804,0.082,0.0846,0.0859,0.0865,0.087,0.0911,0.0901,0.0887,0.0938,0.0914,0.0916,0.0948,0.0954,0.0959,0.0986,0.0884,0,0,0,0,0,0.0652,0.0677,0.0707,0.0732,0.0749,0.0778,0.0796,0.0818,0.0842,0.0857,0.0876,0.0894,0.0913,0.0923,0.0938,0.0952,0.0977,0.0976,0.0981,0.0986,0.1008,0.1067,0.108,0.0935,0.0935,0.0935,0,0,0.0652,0.0679,0.0691,0.0731,0.0757,0.0781,0.0794,0.0832,0.0856,0.0855,0.09,0.0918,0.0923,0.0954,0.0971,0.0953,0.1039,0.0988,0.0992,0.1013,0.107,0.1085,0.1098,0.0936,0.0936,0.0936,0,0,0.0661,0.0692,0.0713,0.0737,0.0782,0.08,0.0817,0.0856,0.0884,0.0918,0.0931,0.097,0.0989,0.1007,0.1014,0.1053,0.1073,0.1058,0.1101,0.1157,0.117,0.1181,0.1232,0.1247,0.1053,0.1053,0.1053,0,0.0659,0.069,0.0723,0.0749,0.0772,0.0811,0.0835,0.0863,0.0906,0.0935,0.0945,0.1014,0.1018,0.1061,0.1082,0.1069,0.1104,0.1074,0.1166,0.1178,0.1189,0.1238,0.1255,0.1056,0.1055,0.1055,0.1055,0,0.0678,0.0706,0.0725,0.077,0.0798,0.0829,0.087,0.0909,0.095,0.0983,0.1056,0.1074,0.1128,0.1124,0.1118,0.1195,0.1196,0.1173,0.1152,0.1207,0.1254,0.1271,0.1059,0.1058,0.1058,0.1057,0,0,0.0658,0.0724,0.073,0.0749,0.0813,0.0831,0.0888,0.0945,0.0999,0.1051,0.112,0.1164,0.1212,0.1224,0.1229,0.1262,0.1366,0.1258,0.126,0.1314,0.1503,0.1353,0.1357,0.1365,0.1368,0.1371,0.1504,0,0.0663,0.0701,0.074,0.0777,0.0799,0.0856,0.0906,0.0966,0.1036,0.1114,0.1162,0.1251,0.1238,0.1297,0.1327,0.1362,0.1413,0.1333,0.1437,0.144,0.1305,0.1372,0.1381,0.1516,0.152,0.1523,0.1525,0,0.0661,0.0689,0.0722,0.0784,0.0802,0.0835,0.0931,0.0983,0.11,0.117,0.1271,0.1344,0.1437,0.1414,0.1524,0.148,0.1516,0.1524,0.1529,0.1387,0.1321,0.145,0.1555,0.1553,0.155,0.1548,0.1547,0,0.0612,0.0672,0.0696,0.0714,0.0793,0.083,0.0885,0.1001,0.1068,0.1239,0.1331,0.1448,0.1548,0.1597,0.1645,0.162,0.1732,0.1699,0.1597,0.1587,0.1661,0.1647,0.1794,0.1794,0.1794,0.1793,0.1793,0,0.059,0.0606,0.0676,0.0683,0.0727,0.0802,0.0886,0.097,0.1112,0.1199,0.1371,0.1463,0.161,0.169,0.1693,0.169,0.1792,0.163,0.1618,0.1676,0.1663,0.1673,0.1657,0.1798,0.1797,0.1796,0.1795,0,0.0522,0.0573,0.0591,0.0668,0.0699,0.0728,0.0865,0.0931,0.11,0.1223,0.1305,0.1528,0.1639,0.172,0.1818,0.1765,0.1763,0.1738,0.1811,0.1796,0.1577,0.1562,0.1666,0.1662,0.1658,0.1655,0.1653,0,0.0495,0.0493,0.0551,0.0572,0.0607,0.068,0.0737,0.09,0.0979,0.1224,0.1264,0.148,0.1595,0.1615,0.1701,0.1726,0.1692,0.1728,0.1643,0.159,0.1568,0.1558,0.1548,0.1647,0.1647,0.1646,0.1645,0,0.0415,0.043,0.0438,0.0482,0.0529,0.0589,0.0685,0.0737,0.093,0.1094,0.1225,0.1336,0.1447,0.153,0.1582,0.1575,0.1719,0.1691,0.1698,0.1619,0.1569,0.1548,0.1542,0.1633,0.1635,0.1636,0.1636,0,0.0347,0.0324,0.0338,0.0379,0.0434,0.0479,0.0548,0.065,0.0751,0.1017,0.1044,0.1231,0.1406,0.1451,0.1463,0.1479,0.1459,0.1435,0.1455,0.1469,0.134,0.1243,0.1217,0,0,0,0,0,0.0281,0.0245,0.0251,0.0286,0.0343,0.0388,0.0504,0.0588,0.0771,0.0816,0.0934,0.1021,0.1137,0.1238,0.1214,0.1365,0.1448,0.1334,0.1424,0.1567,0.1581,0.1444,0,0,0,0,0,0,0.0227,0.0205,0.0204,0.0207,0.0231,0.0288,0.0359,0.0482,0.0525,0.0719,0.0774,0.0946,0.105,0.1116,0.1185,0.1214,0.1249,0.1445,0.1443,0.1559,0.1572,0.1583,0.1447,0,0,0,0,0]},{"header":{"parameterUnit":"m.s-1","parameterCategory":2,"la1":30.2991,"la2":30.254,"lo1":-89.0895,"lo2":-89.0444,"dy":0.0017,"dx":0.0017,"nx":28,"ny":28,"refTime":"2024-08-18T21:00:00:Z","depth":"4","parameterNumber":3,"parameterNumberName":"V-component_of_CURRENTS"},"data":[0,0,0,0,0,0,0,0,0,0,0,0,0,0,0,0,0,0,0,0,0,0,0,0,0,0,0,0,0,0,0,0,0,0,0,0,0,0,0,0,0,0,0,0,0,0,0,0,0,0,0,0,0,0,0,0,0,0,0.0173,0.0172,0,0.0102,0.0101,0.01,0.0067,0.0067,0.0067,0.0067,0.0033,0.0032,0.0031,0,0,0,0,0,0,0,0,0,0,0,0,0,0.0263,0.0261,0.0173,0.0172,0.0171,0.0102,0.0101,0.01,0.0067,0.0067,0.0067,0.0067,0.0034,0.0032,0.0031,0,0,0,0,0,0,0,0,0,0,0,0,0,0.0211,0.0261,0.0173,0.0147,0.0143,0.0102,0.0101,0.0099,0.0067,0.0067,0.0067,0.0067,0.0034,0.0033,0.0031,0.002,0,0,0.0027,0.0026,0,0,0,0,0,0,0,0,0.0214,0.0208,0.0151,0.0148,0.0145,0.0093,0.012,0.0075,0.0067,0.0096,0.0067,0.0067,0.0057,0.0053,0.0039,0.0019,0.0017,0.0027,0.0026,0.0025,0.0025,0,0,0,0,0,0,0,0.0218,0.0211,0.0145,0.015,0.0146,0.0132,0.0125,0.0111,0.0078,0.0094,0.0091,0.0083,0.0055,0.0041,0.0038,0.0017,0.0027,0.0025,0.0024,0.0024,0.0016,0.0017,0,0,0,0,0,0,0.0227,0.0214,0.0147,0.0143,0.018,0.013,0.0122,0.011,0.0077,0.0071,0.0083,0.0082,0.0043,0.004,0.0037,0.0061,0.0025,0.0024,0.0023,0.0016,0.0016,0.0017,0,0,0,0,0,0,0.0229,0.0221,0.015,0.0177,0.0167,0.0129,0.0115,0.0108,0.0095,0.0068,0.0064,0.0076,0.0043,0.0039,0.0037,0.0058,0.0023,0.0022,0.0015,0.0016,0.0017,0.0085,0,0,0,0,0,0,0.0232,0.0223,0.022,0.0177,0.0166,0.0131,0.0114,0.0107,0.0089,0.0087,0.0061,0.0058,0.0043,0.0039,0.0035,0.0056,0.0021,0.0014,0.0015,0.0016,0.0082,0.0088,0.0093,0,0,0,0,0,0.0235,0.0226,0.022,0.0212,0.0162,0.0131,0.0124,0.0097,0.0089,0.0085,0.0074,0.0058,0.0044,0.0038,0.0034,0.0054,0.0013,0.0015,0.0016,0.0079,0.0087,0.0093,0,0,0,0,0,0,0.0259,0.0221,0.0213,0.0192,0.0169,0.0126,0.0115,0.0099,0.0085,0.0086,0.0064,0.006,0.0067,0.0048,0.0042,0.0055,0.0027,0.0028,0.0076,0.0083,0.0089,0.0128,0.0019,0,0,0,0,0,0.0265,0.0251,0.0216,0.02,0.0189,0.0155,0.014,0.0123,0.0102,0.0095,0.0078,0.0067,0.0068,0.0066,0.0056,0.0061,0.0038,0.0071,0.0077,0.0082,0.011,0.0091,0.0098,0.0022,0.0022,0.0022,0,0,0.0269,0.0247,0.0239,0.0205,0.0183,0.0181,0.0146,0.0124,0.0136,0.0095,0.0104,0.0084,0.0073,0.0083,0.0084,0.0071,0.0086,0.0084,0.0089,0.0114,0.0093,0.0101,0.0107,0.0023,0.0023,0.0023,0,0,0.0273,0.0252,0.0246,0.0235,0.0208,0.0194,0.0191,0.0155,0.0153,0.0154,0.0137,0.0138,0.0119,0.0127,0.0128,0.016,0.0116,0.0145,0.021,0.019,0.0197,0.0202,0.0161,0.0162,0.015,0.015,0.0151,0,0.0281,0.0276,0.024,0.0239,0.0247,0.0206,0.0222,0.021,0.0183,0.0199,0.0168,0.0172,0.0151,0.0193,0.0203,0.0177,0.0145,0.0185,0.0199,0.0204,0.0209,0.0165,0.0166,0.0154,0.0153,0.0153,0.0153,0,0.0282,0.0293,0.0288,0.0287,0.0288,0.029,0.0281,0.0284,0.0276,0.0271,0.0295,0.0265,0.0277,0.0261,0.0243,0.0274,0.0231,0.0206,0.0185,0.0221,0.0172,0.0171,0.0159,0.0158,0.0157,0.0156,0,0,0.0264,0.0289,0.029,0.0326,0.0323,0.0328,0.0358,0.0382,0.0419,0.0389,0.0431,0.0426,0.0406,0.0407,0.0376,0.036,0.0346,0.0301,0.0298,0.0266,0.0282,0.0217,0.0209,0.0315,0.0315,0.0316,0.0227,0,0.0283,0.0324,0.0326,0.0386,0.0416,0.042,0.0461,0.0481,0.0485,0.0508,0.0491,0.0515,0.0463,0.0472,0.0447,0.0366,0.0352,0.0372,0.0248,0.0245,0.0188,0.021,0.0319,0.0226,0.0226,0.0226,0.0226,0,0.028,0.0322,0.039,0.0477,0.049,0.0526,0.0603,0.063,0.0656,0.066,0.0673,0.0646,0.0634,0.0577,0.0481,0.0489,0.0409,0.0341,0.0335,0.026,0.018,0.0186,0.0224,0.0224,0.0224,0.0224,0.0224,0,0.0299,0.0367,0.044,0.0464,0.0544,0.0596,0.064,0.0685,0.0727,0.0763,0.0782,0.0757,0.0739,0.0645,0.0492,0.049,0.0355,0.0332,0.0208,0.02,0.0255,0.0251,0.0294,0.0294,0.0295,0.0295,0.0295,0,0.0319,0.0375,0.0466,0.051,0.0614,0.0651,0.0753,0.0787,0.0838,0.0875,0.0866,0.0866,0.0754,0.0654,0.052,0.0342,0.0375,0.0233,0.0184,0.028,0.028,0.0253,0.0249,0.0291,0.0292,0.0293,0.0293,0,0.0321,0.0373,0.0471,0.0588,0.0628,0.0705,0.082,0.0878,0.0927,0.0968,0.0985,0.0944,0.0804,0.0664,0.0488,0.0377,0.0218,0.0156,0.0255,0.021,0.0073,0.0074,0.0028,0.0025,0.0023,0.0021,0.0019,0,0.0326,0.0377,0.0525,0.0588,0.0648,0.0763,0.0832,0.0914,0.0961,0.0989,0.0992,0.0913,0.0848,0.0545,0.0404,0.0163,0.0133,0.0068,0.0103,0.0094,0.0051,0.0056,0.006,0.0015,0.0015,0.0014,0.0013,0,0.0346,0.04,0.0485,0.061,0.0704,0.0809,0.0907,0.0941,0.1001,0.1053,0.0976,0.0858,0.0698,0.05,0.032,0.0147,0.0118,0.0043,0.0048,0.008,0.0078,0.0039,0.0045,0.0005,0.0006,0.0007,0.0007,0,0.0356,0.0414,0.0515,0.0619,0.0729,0.0803,0.0872,0.0907,0.0955,0.0975,0.0931,0.079,0.0729,0.0488,0.0305,0.0142,0.0115,0.008,0.0083,0.009,0.0135,0.0143,0.006,0,0,0,0,0,0.0363,0.0411,0.0508,0.0622,0.0723,0.078,0.0886,0.0941,0.0992,0.0926,0.0931,0.0771,0.0527,0.0441,0.0261,0.0265,0.009,0.0052,0.0052,-0.0041,-0.0031,0.0005,0,0,0,0,0,0,0.0365,0.0449,0.0493,0.0583,0.0648,0.0753,0.0814,0.0857,0.083,0.0857,0.0725,0.0714,0.0476,0.0603,0.0244,0.0205,0.018,-0.0039,-0.0043,-0.0046,-0.0037,-0.003,0.001,0,0,0,0,0]}]]